Location: Columbia
(38.9520°N, 92.3340°W)
Time: 12:04:11
(UTC-05:00)

SL-08 RB Rocket - Visible Passes

Search period start: 27 April 2015 00:00
Search period end: 07 May 2015 00:00
Orbit: 650 x 686 km, 98.1° (Epoch: 26 April)

Date Brightness Start Highest point End Pass type
(mag) Time Alt. Az. Time Alt. Az. Time Alt. Az.
27 Apr 4.1 22:46:03 60° N 22:46:03 60° N 22:49:51 10° NNW visible
28 Apr 5.4 21:40:14 18° ENE 21:40:32 18° ENE 21:43:47 10° NNE visible
28 Apr 5.0 23:18:24 36° WNW 23:18:24 36° WNW 23:21:44 10° NNW visible
29 Apr 4.5 22:12:35 37° ENE 22:12:35 37° ENE 22:16:41 10° N visible
29 Apr 6.0 23:50:44 18° WNW 23:50:44 18° WNW 23:52:56 10° NW visible
30 Apr 3.9 22:44:55 68° N 22:44:55 68° N 22:49:01 10° N visible
01 May 5.4 21:39:07 18° ENE 21:39:41 18° ENE 21:42:54 10° NNE visible
01 May 4.9 23:17:16 39° WNW 23:17:16 39° WNW 23:20:54 10° NNW visible
02 May 4.4 22:11:28 37° ENE 22:11:32 37° ENE 22:15:50 10° N visible
02 May 5.9 23:49:37 19° WNW 23:49:37 19° WNW 23:52:08 10° NW visible
03 May 3.7 22:43:48 76° NNE 22:43:48 76° NNE 22:48:10 10° N visible
04 May 5.4 21:38:00 17° E 21:38:50 18° ENE 21:42:01 10° NNE visible
04 May 4.7 23:16:09 42° WNW 23:16:09 42° WNW 23:20:03 10° NNW visible
05 May 4.5 22:10:21 36° E 22:10:40 36° ENE 22:14:57 10° N visible
05 May 5.8 23:48:30 20° W 23:48:30 20° W 23:51:18 10° NW visible
06 May 3.6 22:42:42 80° ENE 22:42:42 80° ENE 22:47:18 10° N visible
